1545804001.06,2084,1.13,73042.5,-13.03,-13.55,-13.47,0,*5C
1545804002.29,2085,1.13,73030.5,-13.01,-13.55,-13.47,0,*5F
1545804003.5,2086,1.13,73036.5,-13.03,-13.43,-13.55,0,*5A
1545804004.71,2087,1.13,73042.3,-13.03,-13.47,-13.55,0,*5F
1545804005.94,2088,1.13,73046.3,-13.01,-13.47,-13.47,0,*51
1545804007.17,2089,1.13,73054.0,-13.03,-13.55,-13.61,0,*55
1545804008.41,2090,1.13,73058.8,-13.01,-13.47,-13.55,0,*5B
1545804009.61,2091,1.13,73016.5,-13.03,-13.47,-13.55,0,*58
1545804010.81,2092,1.13,73028.3,-13.03,-13.47,-13.47,0,*58
1545804012.04,2093,1.13,73026.0,-13.01,-13.43,-13.47,0,*5F
1545804013.27,2094,1.13,73036.3,-13.01,-13.55,-13.47,0,*5F
1545804014.5,2095,1.13,73026.0,-13.01,-13.55,-13.47,0,*5E
1545804015.7,2096,1.13,73042.0,-13.03,-13.47,-13.43,0,*58
1545804016.93,2097,1.13,73040.3,-13.01,-13.47,-13.43,0,*5B
1545804018.16,2098,1.13,73042.0,-13.01,-13.47,-13.47,0,*50
1545804019.36,2099,1.13,73042.8,-13.03,-13.47,-13.43,0,*57
1545804020.58,2100,1.13,73032.8,-13.01,-13.47,-13.47,0,*50
1545804021.78,2101,1.13,73030.3,-13.03,-13.47,-13.47,0,*53
1545804023.02,2102,1.13,72980.3,-12.99,-13.55,-13.43,0,*55
1545804024.25,2103,1.13,73042.0,-13.01,-13.55,-13.55,0,*53
1545804025.46,2104,1.13,73034.5,-13.03,-13.55,-13.47,0,*55
1545804026.69,2105,1.13,73044.0,-13.01,-13.55,-13.55,0,*55
1545804027.92,2106,1.13,73056.3,-13.01,-13.43,-13.47,0,*52
1545804029.18,2107,1.13,73060.0,-13.01,-13.61,-13.47,0,*53
1545804030.38,2108,1.13,73062.5,-13.03,-13.55,-13.43,0,*5D
1545804031.62,2109,1.13,73066.0,-13.01,-13.55,-13.55,0,*59
1545804032.85,2110,1.13,73060.5,-13.01,-13.47,-13.55,0,*52
1545804034.08,2111,1.13,73062.3,-13.01,-13.55,-13.47,0,*53
1545804035.34,2112,1.13,73070.3,-13.01,-13.55,-13.61,0,*54
1545804036.58,2113,1.13,73070.3,-13.03,-13.61,-13.55,0,*57
1545804037.81,2114,1.13,73060.8,-13.01,-13.55,-13.43,0,*52
1545804039.04,2115,1.13,73066.8,-13.01,-13.47,-13.47,0,*54
1545804040.27,2116,1.13,73068.3,-12.99,-13.55,-13.43,0,*50
1545804041.53,2117,1.13,73070.5,-12.99,-13.61,-13.47,0,*52
1545804042.76,2118,1.13,73064.5,-12.99,-13.55,-13.47,0,*5A
1545804043.98,2119,1.13,73080.3,-13.01,-13.55,-13.47,0,*5B
1545804045.21,2120,1.13,73078.5,-13.01,-13.47,-13.47,0,*52
1545804046.44,2121,1.13,73064.8,-12.99,-13.55,-13.47,0,*50
1545804047.67,2122,1.13,73042.8,-12.99,-13.55,-13.47,0,*53
1545804048.88,2123,1.13,73070.0,-12.97,-13.47,-13.43,0,*5B
1545804050.1,2124,1.13,73034.3,-12.99,-13.47,-13.47,0,*56
1545804051.33,2125,1.13,73018.3,-12.99,-13.47,-13.43,0,*53
1545804052.56,2126,1.13,72994.8,-13.01,-13.47,-13.47,0,*54
1545804053.79,2127,1.13,73042.0,-12.99,-13.43,-13.47,0,*51
1545804055.02,2128,1.13,73098.0,-12.99,-13.43,-13.55,0,*5D
1545804056.25,2129,1.13,73064.0,-12.99,-13.47,-13.47,0,*5B
1545804057.48,2130,1.13,73060.8,-12.99,-13.47,-13.55,0,*50
1545804058.69,2131,1.13,73066.0,-12.97,-13.43,-13.43,0,*5C
1545804059.92,2132,1.13,73052.0,-12.99,-13.47,-13.47,0,*51
1545804061.15,2133,1.13,73064.0,-12.99,-13.55,-13.47,0,*53
1545804062.38,2134,1.13,73070.3,-12.99,-13.47,-13.47,0,*57
1545804063.61,2135,1.13,73078.3,-13.01,-13.43,-13.55,0,*51
1545804064.83,2136,1.13,73078.5,-13.01,-13.47,-13.47,0,*55
1545804066.06,2137,1.13,73064.5,-13.01,-13.47,-13.47,0,*54
1545804067.29,2138,1.13,73072.8,-12.99,-13.47,-13.43,0,*5F
1545804068.52,2139,1.13,73046.0,-12.99,-13.43,-13.47,0,*5E
1545804069.74,2140,1.13,73044.0,-12.99,-13.47,-13.47,0,*54
1545804070.97,2141,1.13,73024.5,-12.99,-13.47,-13.47,0,*55
1545804072.2,2142,1.13,73046.8,-12.99,-13.47,-13.47,0,*56
1545804073.46,2143,1.13,73028.0,-12.99,-13.47,-13.61,0,*53
1545804074.68,2144,1.13,73024.0,-12.99,-13.47,-13.47,0,*50
1545804075.89,2145,1.13,73080.0,-12.97,-13.43,-13.43,0,*5F
1545804077.12,2146,1.13,73060.8,-12.99,-13.47,-13.47,0,*52
1545804078.33,2147,1.13,73070.5,-12.97,-13.43,-13.43,0,*5D
1545804079.54,2148,1.13,73046.3,-12.97,-13.43,-13.43,0,*52
1545804080.76,2149,1.13,73052.8,-12.99,-13.47,-13.47,0,*5D
1545804081.97,2150,1.13,73048.0,-12.97,-13.43,-13.43,0,*5B
1545804083.18,2151,1.13,73058.5,-12.97,-13.43,-13.43,0,*5A
1545804084.39,2152,1.13,73058.0,-12.97,-13.47,-13.43,0,*5D
1545804085.62,2153,1.13,73040.8,-12.99,-13.47,-13.43,0,*52
1545804086.84,2154,1.13,73048.3,-12.99,-13.47,-13.47,0,*51
1545804088.07,2155,1.13,73066.8,-12.99,-13.43,-13.47,0,*54
1545804089.3,2156,1.13,73054.8,-12.99,-13.47,-13.47,0,*53
1545804090.53,2157,1.13,73062.3,-12.99,-13.55,-13.43,0,*55
1545804091.74,2158,1.13,73074.0,-12.97,-13.43,-13.43,0,*53
1545804092.97,2159,1.13,73070.8,-12.99,-13.47,-13.47,0,*5C
1545804094.19,2160,1.13,73068.5,-12.97,-13.51,-13.51,0,*58
1545804095.4,2161,1.13,73066.3,-12.97,-13.43,-13.43,0,*59
1545804096.63,2162,1.13,73066.0,-12.97,-13.43,-13.37,0,*59
1545804097.85,2163,1.13,73068.0,-12.97,-13.51,-13.43,0,*58
1545804099.08,2164,1.13,73056.3,-12.97,-13.37,-13.43,0,*5F
1545804100.3,2165,1.13,73060.3,-12.97,-13.51,-13.43,0,*5E
1545804101.51,2166,1.13,73064.5,-12.97,-13.43,-13.51,0,*5D
1545804102.74,2167,1.13,73056.0,-12.99,-13.47,-13.47,0,*51
1545804103.95,2168,1.13,73054.3,-12.97,-13.43,-13.43,0,*50
1545804105.16,2169,1.13,73058.3,-12.97,-13.51,-13.43,0,*52
1545804106.39,2170,1.13,73062.5,-12.99,-13.47,-13.47,0,*57
1545804107.63,2171,1.13,73066.3,-12.97,-13.37,-13.43,0,*5B
1545804108.83,2172,1.13,73070.3,-12.97,-13.43,-13.43,0,*5B
1545804110.04,2173,1.13,73064.3,-12.97,-13.43,-13.43,0,*5A
1545804111.25,2174,1.13,73068.5,-12.97,-13.43,-13.43,0,*5D
1545804112.46,2175,1.13,73066.5,-12.97,-13.43,-13.43,0,*5C
1545804113.67,2176,1.13,73094.0,-12.97,-13.43,-13.43,0,*5F
1545804114.91,2177,1.13,73036.0,-12.97,-13.43,-13.37,0,*5D
1545804116.12,2178,1.13,73050.5,-12.97,-13.51,-13.51,0,*51
1545804117.34,2179,1.13,73054.0,-12.97,-13.51,-13.43,0,*53
1545804118.55,2180,1.13,73052.5,-12.97,-13.43,-13.43,0,*56
1545804119.79,2181,1.13,73066.3,-12.97,-13.43,-13.37,0,*54
1545804121.03,2182,1.13,73074.8,-12.97,-13.51,-13.37,0,*54
1545804122.27,2183,1.13,73076.8,-12.95,-13.43,-13.43,0,*57
1545804123.56,2184,1.13,73074.3,-12.95,-13.37,-13.37,0,*50
1545804124.77,2185,1.13,73074.0,-12.97,-13.43,-13.43,0,*53
1545804126.01,2186,1.13,73068.0,-12.97,-13.43,-13.37,0,*53
1545804127.21,2187,1.13,73056.8,-12.97,-13.43,-13.43,0,*51
1545804128.44,2188,1.13,73054.5,-12.99,-13.47,-13.47,0,*50
1545804129.65,2189,1.13,73058.5,-12.97,-13.43,-13.43,0,*5F
1545804130.86,2190,1.13,73062.3,-12.97,-13.43,-13.43,0,*57
1545804132.07,2191,1.13,73070.3,-12.97,-13.43,-13.43,0,*56
1545804133.31,2192,1.13,73076.8,-12.95,-13.51,-13.43,0,*54
1545804134.58,2193,1.13,73066.8,-12.95,-13.37,-13.43,0,*55
1545804135.82,2194,1.13,73070.0,-12.95,-13.43,-13.43,0,*51
1545804137.06,2195,1.13,73070.8,-12.95,-13.43,-13.43,0,*50
1545804138.3,2196,1.13,73060.8,-12.95,-13.43,-13.43,0,*53
1545804139.53,2197,1.13,73056.3,-12.95,-13.43,-13.43,0,*52
1545804140.77,2198,1.13,73056.5,-12.95,-13.43,-13.43,0,*5D
1545804142.01,2199,1.13,73052.8,-12.95,-13.43,-13.43,0,*5C
1545804143.28,2200,1.13,73060.8,-12.95,-13.37,-13.43,0,*5C
1545804144.52,2201,1.13,73060.3,-12.95,-13.43,-13.51,0,*5D
1545804145.81,2202,1.13,73056.5,-12.91,-13.37,-13.37,0,*59
1545804147.05,2203,1.13,73056.0,-12.95,-13.43,-13.43,0,*5C
1545804148.31,2204,1.13,73066.5,-12.95,-13.37,-13.43,0,*58
1545804149.55,2205,1.13,73066.5,-12.97,-13.51,-13.37,0,*58
1545804150.79,2206,1.13,73040.8,-12.97,-13.43,-13.37,0,*58
1545804152.06,2207,1.13,73046.0,-12.95,-13.37,-13.43,0,*5B
1545804153.32,2208,1.13,73058.0,-12.95,-13.37,-13.43,0,*54
1545804154.61,2209,1.13,73058.5,-12.91,-13.37,-13.37,0,*52
1545804155.85,2210,1.13,73064.5,-12.95,-13.43,-13.43,0,*5E
1545804157.13,2211,1.13,73058.8,-12.91,-13.37,-13.33,0,*5F
1545804158.4,2212,1.13,73068.8,-12.95,-13.37,-13.43,0,*5F
1545804159.67,2213,1.13,73066.3,-12.95,-13.37,-13.43,0,*5E
1545804160.93,2214,1.13,73074.3,-12.95,-13.37,-13.51,0,*5A
1545804162.2,2215,1.13,73074.8,-12.95,-13.43,-13.37,0,*58
1545804163.48,2216,1.13,73072.0,-12.91,-13.33,-13.37,0,*58
1545804164.75,2217,1.13,73076.0,-12.95,-13.43,-13.37,0,*5A
1545804165.99,2218,1.13,73086.5,-12.95,-13.43,-13.43,0,*56
1545804167.23,2219,1.13,73078.8,-12.95,-13.43,-13.51,0,*54
1545804168.47,2220,1.13,73092.8,-12.95,-13.43,-13.43,0,*5D
1545804169.76,2221,1.13,73102.5,-12.91,-13.37,-13.33,0,*5C
1545804171.0,2222,1.13,73086.5,-12.95,-13.43,-13.43,0,*5F
1545804172.29,2223,1.13,73090.5,-12.91,-13.37,-13.33,0,*5E
1545804173.57,2224,1.13,73080.0,-12.91,-13.37,-13.37,0,*5D
1545804174.81,2225,1.13,73092.3,-12.95,-13.43,-13.43,0,*58
1545804176.08,2226,1.13,73080.0,-12.95,-13.43,-13.37,0,*58
1545804177.36,2227,1.13,73080.0,-12.91,-13.37,-13.37,0,*5E
1545804178.6,2228,1.13,73082.8,-12.95,-13.43,-13.43,0,*55
1545804179.89,2229,1.13,73082.5,-12.91,-13.37,-13.33,0,*54
1545804181.14,2230,1.13,73076.8,-12.95,-13.51,-13.43,0,*5F
1545804182.43,2231,1.13,73076.5,-12.91,-13.37,-13.33,0,*5D
1545804183.71,2232,1.13,73074.3,-12.91,-13.37,-13.37,0,*5A
1545804185.0,2233,1.13,73070.3,-12.91,-13.37,-13.37,0,*5B
1545804186.28,2234,1.13,73058.8,-12.91,-13.37,-13.37,0,*5C
1545804187.57,2235,1.13,73060.8,-12.91,-13.33,-13.37,0,*59
1545804188.86,2236,1.13,73072.8,-12.91,-13.37,-13.33,0,*5A
1545804190.14,2237,1.13,73084.3,-12.91,-13.37,-13.37,0,*5F
1545804191.38,2238,1.13,73098.5,-12.95,-13.43,-13.43,0,*54
1545804192.67,2239,1.13,73090.8,-12.91,-13.33,-13.37,0,*55
1545804193.95,2240,1.13,73084.0,-12.91,-13.37,-13.37,0,*5F
1545804195.19,2241,1.13,73072.8,-12.95,-13.43,-13.43,0,*5A
1545804196.48,2242,1.13,73094.3,-12.91,-13.37,-13.37,0,*5D
1545804197.76,2243,1.13,73120.3,-12.91,-13.37,-13.37,0,*5C
1545804199.05,2244,1.13,73074.5,-12.91,-13.37,-13.37,0,*5B
1545804200.3,2245,1.13,73034.0,-12.91,-13.47,-13.37,0,*5D
1545804201.57,2246,1.13,73102.3,-12.95,-13.43,-13.37,0,*5E
1545804202.81,2247,1.13,73088.0,-12.95,-13.43,-13.43,0,*5C
1545804204.11,2248,1.13,73058.8,-12.95,-13.37,-13.33,0,*57
1545804205.39,2249,1.13,73050.3,-12.91,-13.33,-13.33,0,*56
1545804206.65,2250,1.13,73064.8,-12.91,-13.37,-13.47,0,*59
1545804207.94,2251,1.13,73046.5,-12.91,-13.37,-13.33,0,*5B
1545804209.22,2252,1.13,73068.3,-12.91,-13.33,-13.37,0,*58
1545804210.51,2253,1.13,73058.3,-12.91,-13.37,-13.33,0,*59
1545804211.8,2254,1.13,73060.0,-12.91,-13.37,-13.33,0,*5E
1545804213.09,2255,1.13,73078.3,-12.91,-13.37,-13.33,0,*5F
1545804214.37,2256,1.13,73086.8,-12.91,-13.37,-13.33,0,*5C
1545804215.66,2257,1.13,73094.8,-12.91,-13.33,-13.33,0,*59
1545804216.95,2258,1.13,73108.8,-12.91,-13.37,-13.37,0,*56
1545804218.21,2259,1.13,73106.3,-12.89,-13.33,-13.33,0,*5E
1545804219.49,2260,1.13,73110.5,-12.91,-13.33,-13.33,0,*5D
1545804220.78,2261,1.13,73096.8,-12.91,-13.33,-13.33,0,*5C
1545804222.06,2262,1.13,73100.3,-12.91,-13.33,-13.37,0,*5B
1545804223.35,2263,1.13,73074.8,-12.91,-13.33,-13.37,0,*5A
1545804224.61,2264,1.13,73054.5,-12.89,-13.33,-13.29,0,*5B
1545804225.89,2265,1.13,73046.5,-12.91,-13.37,-13.37,0,*58
1545804227.18,2266,1.13,73062.8,-12.91,-13.37,-13.37,0,*5B
1545804228.46,2267,1.13,73058.0,-12.91,-13.37,-13.37,0,*5A
1545804229.75,2268,1.13,73084.0,-12.91,-13.37,-13.33,0,*51
1545804231.04,2269,1.13,73086.5,-12.91,-13.37,-13.37,0,*54
1545804232.32,2270,1.13,73100.5,-12.91,-13.33,-13.37,0,*58
1545804233.6,2271,1.13,73068.3,-12.91,-13.33,-13.37,0,*59
1545804234.89,2272,1.13,73088.5,-12.91,-13.33,-13.37,0,*5A
1545804236.15,2273,1.13,73080.0,-12.89,-13.33,-13.33,0,*56
1545804237.43,2274,1.13,73074.0,-12.91,-13.37,-13.37,0,*58
1545804238.72,2275,1.13,73066.3,-12.91,-13.37,-13.37,0,*59
1545804239.98,2276,1.13,73068.3,-12.89,-13.33,-13.33,0,*53
1545804241.26,2277,1.13,73084.0,-12.91,-13.37,-13.37,0,*5B
1545804242.55,2278,1.13,73064.5,-12.91,-13.37,-13.33,0,*50
1545804243.84,2279,1.13,73040.3,-12.91,-13.37,-13.37,0,*55
1545804245.12,2280,1.13,73058.8,-12.91,-13.37,-13.37,0,*53
1545804246.41,2281,1.13,73062.0,-12.91,-13.33,-13.37,0,*56
1545804247.67,2282,1.13,73050.3,-12.89,-13.33,-13.33,0,*58
1545804248.92,2283,1.13,73060.3,-12.89,-13.33,-13.29,0,*52
1545804250.21,2284,1.13,73082.5,-12.91,-13.33,-13.33,0,*57
1545804251.5,2285,1.13,73070.0,-12.91,-13.37,-13.33,0,*52
1545804252.78,2286,1.13,73084.5,-12.91,-13.33,-13.37,0,*51
1545804254.04,2287,1.13,73082.8,-12.89,-13.33,-13.29,0,*56
1545804255.3,2288,1.13,73068.8,-12.89,-13.37,-13.37,0,*52
1545804256.56,2289,1.13,73070.0,-12.89,-13.29,-13.33,0,*58
1545804257.85,2290,1.13,73070.5,-12.91,-13.33,-13.37,0,*56
1545804259.11,2291,1.13,73066.0,-12.89,-13.29,-13.33,0,*51
1545804260.39,2292,1.13,73070.0,-12.91,-13.33,-13.37,0,*54
1545804261.67,2293,1.13,73072.5,-12.91,-13.33,-13.37,0,*55
1545804262.93,2294,1.13,73086.5,-12.89,-13.29,-13.29,0,*5F
1545804264.22,2295,1.13,73086.8,-12.91,-13.33,-13.33,0,*57
1545804265.46,2296,1.13,73082.0,-12.89,-13.43,-13.33,0,*5A
1545804266.75,2297,1.13,73086.3,-12.91,-13.37,-13.33,0,*51
1545804268.01,2298,1.13,73082.5,-12.89,-13.33,-13.33,0,*53
1545804269.26,2299,1.13,73088.3,-12.89,-13.33,-13.29,0,*59
1545804270.52,2300,1.13,73076.3,-12.89,-13.33,-13.29,0,*58
1545804271.78,2301,1.13,73046.5,-12.89,-13.33,-13.33,0,*52
1545804273.06,2302,1.13,73056.3,-12.91,-13.37,-13.37,0,*58
1545804274.35,2303,1.13,73038.8,-12.91,-13.33,-13.37,0,*5D
1545804275.6,2304,1.13,73060.5,-12.89,-13.33,-13.29,0,*5C
1545804276.89,2305,1.13,73074.3,-12.91,-13.33,-13.33,0,*5F
1545804278.15,2306,1.13,73074.3,-12.89,-13.33,-13.33,0,*55
1545804279.41,2307,1.13,73066.5,-12.91,-13.37,-13.47,0,*5A
1545804280.64,2308,1.13,73074.3,-12.89,-13.29,-13.43,0,*57
1545804281.9,2309,1.13,73074.3,-12.89,-13.33,-13.33,0,*5A
1545804283.18,2310,1.13,73078.8,-12.91,-13.37,-13.37,0,*5B
1545804284.41,2311,1.13,73082.8,-12.89,-13.33,-13.43,0,*54
1545804285.67,2312,1.13,73076.8,-12.89,-13.33,-13.33,0,*50
1545804286.93,2313,1.13,73074.0,-12.91,-13.47,-13.37,0,*5F
1545804288.19,2314,1.13,73074.8,-12.89,-13.29,-13.33,0,*5D
1545804289.45,2315,1.13,73068.3,-12.89,-13.29,-13.29,0,*57
1545804290.71,2316,1.13,73072.0,-12.89,-13.33,-13.33,0,*54
1545804291.97,2317,1.13,73062.5,-12.89,-13.33,-13.33,0,*55
1545804293.23,2318,1.13,73048.8,-12.91,-13.37,-13.47,0,*54
1545804294.43,2319,1.13,73076.5,-12.89,-13.47,-13.43,0,*5F
1545804295.63,2320,1.13,73054.8,-12.89,-13.43,-13.43,0,*51
1545804296.89,2321,1.13,73076.3,-12.89,-13.33,-13.33,0,*50
1545804298.13,2322,1.13,73070.8,-12.89,-13.43,-13.33,0,*54
1545804299.36,2323,1.13,73064.5,-12.89,-13.43,-13.33,0,*55
1545804300.62,2324,1.13,73070.0,-12.89,-13.33,-13.33,0,*55
1545804301.86,2325,1.13,73074.0,-12.89,-13.43,-13.33,0,*53
1545804303.09,2326,1.13,73066.8,-12.89,-13.43,-13.33,0,*50
1545804304.3,2327,1.13,73040.3,-12.89,-13.43,-13.43,0,*56
1545804305.54,2328,1.13,73048.8,-12.89,-13.43,-13.33,0,*5E
1545804306.8,2329,1.13,73044.0,-12.87,-13.47,-13.33,0,*55
1545804308.03,2330,1.13,73062.3,-12.89,-13.33,-13.43,0,*57
1545804309.26,2331,1.13,73064.0,-12.89,-13.43,-13.33,0,*56
1545804310.5,2332,1.13,73076.3,-12.89,-13.43,-13.33,0,*55
1545804311.7,2333,1.13,73074.3,-12.89,-13.43,-13.43,0,*53
1545804312.93,2334,1.13,73082.3,-12.87,-13.43,-13.43,0,*5A
1545804314.14,2335,1.13,73084.0,-12.89,-13.43,-13.43,0,*55
1545804315.35,2336,1.13,73074.5,-12.89,-13.43,-13.43,0,*56
1545804316.57,2337,1.13,73076.3,-12.91,-13.47,-13.47,0,*5E
1545804317.8,2338,1.13,73080.3,-12.89,-13.43,-13.29,0,*54
1545804319.03,2339,1.13,73082.0,-12.89,-13.33,-13.43,0,*5E
1545804320.29,2340,1.13,73074.5,-12.87,-13.33,-13.43,0,*5E
1545804321.53,2341,1.13,73072.5,-12.89,-13.43,-13.33,0,*51
1545804322.76,2342,1.13,73070.8,-12.89,-13.43,-13.33,0,*52
1545804323.97,2343,1.13,73062.8,-12.89,-13.43,-13.43,0,*54
1545804325.17,2344,1.13,73056.0,-12.89,-13.47,-13.43,0,*57
1545804326.37,2345,1.13,73066.5,-12.89,-13.43,-13.43,0,*52
1545804327.63,2346,1.13,73076.8,-12.87,-13.33,-13.43,0,*58
1545804328.89,2347,1.13,73070.8,-12.87,-13.33,-13.43,0,*59
1545804330.12,2348,1.13,73072.8,-12.87,-13.47,-13.43,0,*55
1545804331.35,2349,1.13,72998.0,-12.87,-13.43,-13.43,0,*50
1545804332.58,2350,1.13,73006.0,-12.87,-13.43,-13.47,0,*5C
1545804333.81,2351,1.13,73002.8,-12.87,-13.43,-13.47,0,*5D
1545804335.04,2352,1.13,72990.5,-12.87,-13.43,-13.47,0,*5E
1545804336.3,2353,1.13,73020.5,-12.85,-13.37,-13.37,0,*59
1545804337.5,2354,1.13,73066.8,-12.89,-13.43,-13.43,0,*52
1545804338.71,2355,1.13,73036.3,-12.89,-13.47,-13.43,0,*57
1545804339.94,2356,1.13,73050.0,-12.87,-13.47,-13.43,0,*5A
1545804341.19,2357,1.13,73064.5,-12.87,-13.47,-13.33,0,*5C
1545804342.43,2358,1.13,73072.8,-12.87,-13.43,-13.43,0,*50
1545804343.66,2359,1.13,73060.0,-12.87,-13.43,-13.43,0,*51
1545804344.89,2360,1.13,73072.0,-12.87,-13.47,-13.43,0,*5F
1545804346.12,2361,1.13,73074.0,-12.87,-13.43,-13.43,0,*5A
1545804347.38,2362,1.13,73068.0,-12.87,-13.33,-13.43,0,*5E
1545804348.61,2363,1.13,73070.0,-12.85,-13.37,-13.43,0,*59
1545804349.84,2364,1.13,73072.0,-12.87,-13.43,-13.43,0,*5F
1545804351.08,2365,1.13,73060.5,-12.87,-13.43,-13.43,0,*5E
1545804352.34,2366,1.13,73060.8,-12.85,-13.37,-13.29,0,*50
1545804353.57,2367,1.13,73050.8,-12.87,-13.43,-13.43,0,*5C
1545804354.86,2368,1.13,73054.8,-12.87,-13.33,-13.33,0,*53
1545804356.09,2369,1.13,73060.5,-12.87,-13.43,-13.43,0,*52
1545804357.32,2370,1.13,73060.0,-12.87,-13.47,-13.43,0,*5E
1545804358.55,2371,1.13,73052.5,-12.87,-13.43,-13.43,0,*5B
1545804359.78,2372,1.13,73058.5,-12.87,-13.43,-13.47,0,*5C
1545804361.01,2373,1.13,73050.8,-12.87,-13.43,-13.43,0,*59
1545804362.24,2374,1.13,73050.5,-12.87,-13.47,-13.43,0,*5A
1545804363.48,2375,1.13,73050.3,-12.87,-13.43,-13.43,0,*5F
1545804364.71,2376,1.13,73052.0,-12.87,-13.43,-13.43,0,*5C
1545804365.94,2377,1.13,73052.0,-12.85,-13.37,-13.43,0,*5C
1545804367.17,2378,1.13,73058.8,-12.87,-13.47,-13.47,0,*52
1545804368.4,2379,1.13,73062.0,-12.87,-13.43,-13.43,0,*53
1545804369.63,2380,1.13,73058.0,-12.87,-13.47,-13.47,0,*55
1545804370.86,2381,1.13,73066.5,-12.87,-13.47,-13.43,0,*50
1545804372.09,2382,1.13,73072.5,-12.87,-13.47,-13.43,0,*53
1545804373.32,2383,1.13,73072.3,-12.87,-13.43,-13.43,0,*56
1545804374.54,2384,1.13,73054.0,-12.87,-13.47,-13.47,0,*51
1545804375.78,2385,1.13,73058.3,-12.87,-13.43,-13.43,0,*50
1545804377.01,2386,1.13,73054.0,-12.87,-13.47,-13.43,0,*57
1545804378.24,2387,1.13,73054.3,-12.87,-13.43,-13.47,0,*56
1545804379.47,2388,1.13,73052.8,-12.87,-13.47,-13.43,0,*59
1545804380.7,2389,1.13,73058.5,-12.87,-13.43,-13.43,0,*5C
1545804381.92,2390,1.13,73062.3,-12.87,-13.47,-13.47,0,*54
1545804383.15,2391,1.13,73060.3,-12.87,-13.47,-13.43,0,*51
1545804384.41,2392,1.13,73064.3,-12.85,-13.37,-13.37,0,*54
1545804385.62,2393,1.13,73064.8,-12.85,-13.43,-13.43,0,*55
1545804386.85,2394,1.13,73064.3,-12.87,-13.43,-13.47,0,*54
1545804388.08,2395,1.13,73078.5,-12.87,-13.47,-13.47,0,*51
1545804389.31,2396,1.13,73042.3,-12.87,-13.43,-13.43,0,*52
1545804390.54,2397,1.13,73044.3,-12.87,-13.43,-13.47,0,*57
1545804391.76,2398,1.13,73046.0,-12.87,-13.47,-13.47,0,*5C
1545804393.0,2399,1.13,73038.3,-12.85,-13.43,-13.37,0,*5C
1545804394.23,2400,1.13,73038.0,-12.87,-13.43,-13.43,0,*5A
1545804395.46,2401,1.13,73038.5,-12.87,-13.47,-13.47,0,*5B
1545804396.68,2402,1.13,73044.8,-12.87,-13.47,-13.47,0,*58
1545804397.91,2403,1.13,73054.0,-12.87,-13.47,-13.47,0,*59
1545804399.14,2404,1.13,73076.0,-12.87,-13.47,-13.43,0,*5A
1545804400.36,2405,1.13,73026.8,-12.87,-13.47,-13.47,0,*5F
1545804401.57,2406,1.13,73044.5,-12.85,-13.43,-13.43,0,*5E
1545804402.8,2407,1.13,73056.3,-12.87,-13.47,-13.47,0,*5D
1545804404.02,2408,1.13,73044.8,-12.87,-13.47,-13.47,0,*52
1545804405.26,2409,1.13,73068.0,-12.87,-13.43,-13.43,0,*53
1545804406.48,2410,1.13,73078.5,-12.87,-13.47,-13.47,0,*5B
1545804407.71,2411,1.13,73006.0,-12.87,-13.47,-13.47,0,*5A
1545804408.94,2412,1.13,73042.8,-12.87,-13.47,-13.43,0,*5D
1545804410.15,2413,1.13,73046.0,-12.85,-13.51,-13.43,0,*59
1545804411.38,2414,1.13,73044.5,-12.87,-13.55,-13.43,0,*58
1545804412.61,2415,1.13,73038.5,-12.87,-13.47,-13.43,0,*5A
1545804413.84,2416,1.13,73036.8,-12.87,-13.43,-13.47,0,*59
1545804415.04,2417,1.13,73050.5,-12.85,-13.47,-13.47,0,*5E
1545804416.27,2418,1.13,73050.5,-12.87,-13.47,-13.47,0,*53
1545804417.5,2419,1.13,73052.3,-12.87,-13.47,-13.43,0,*56
1545804418.7,2420,1.13,73054.0,-12.85,-13.47,-13.47,0,*5A
1545804419.93,2421,1.13,73060.8,-12.85,-13.43,-13.37,0,*58
1545804421.16,2422,1.13,73052.3,-12.87,-13.47,-13.43,0,*5E
1545804422.39,2423,1.13,73054.0,-12.87,-13.47,-13.47,0,*5B
1545804423.62,2424,1.13,73034.5,-12.87,-13.55,-13.47,0,*5F
1545804424.85,2425,1.13,73032.3,-12.87,-13.55,-13.43,0,*5A
1545804426.08,2426,1.13,73030.3,-12.85,-13.43,-13.37,0,*5F
1545804427.32,2427,1.13,73040.3,-12.85,-13.37,-13.43,0,*5E
1545804428.52,2428,1.13,73042.3,-12.85,-13.43,-13.43,0,*52
1545804429.75,2429,1.13,73046.3,-12.87,-13.47,-13.47,0,*51
1545804430.98,2430,1.13,73048.8,-12.85,-13.43,-13.37,0,*58
1545804432.21,2431,1.13,73054.3,-12.87,-13.47,-13.47,0,*58
1545804433.43,2432,1.13,73050.8,-12.87,-13.47,-13.47,0,*5B
1545804434.66,2433,1.13,73046.5,-12.87,-13.47,-13.47,0,*5A
1545804435.89,2434,1.13,73052.5,-12.87,-13.47,-13.43,0,*59
1545804437.12,2435,1.13,73050.8,-12.85,-13.43,-13.37,0,*5D
1545804438.36,2436,1.13,73044.8,-12.85,-13.43,-13.37,0,*5E
1545804439.6,2437,1.13,73046.8,-12.85,-13.51,-13.37,0,*5C
1545804440.82,2438,1.13,73040.8,-12.87,-13.47,-13.47,0,*51
1545804442.06,2439,1.13,73040.5,-12.87,-13.55,-13.55,0,*50
1545804443.29,2440,1.13,73046.5,-12.87,-13.43,-13.43,0,*5E
1545804444.52,2441,1.13,73056.0,-12.87,-13.47,-13.43,0,*5B
1545804445.75,2442,1.13,73048.8,-12.87,-13.47,-13.47,0,*5C
1545804446.98,2443,1.13,73048.0,-12.87,-13.55,-13.47,0,*5E
1545804448.21,2444,1.13,73054.3,-12.87,-13.55,-13.47,0,*59
1545804449.44,2445,1.13,73054.8,-12.87,-13.55,-13.47,0,*58
1545804450.67,2446,1.13,73052.0,-12.87,-13.47,-13.47,0,*58
1545804451.9,2447,1.13,73050.3,-12.87,-13.55,-13.43,0,*5E
1545804453.13,2448,1.13,73058.0,-12.87,-13.47,-13.47,0,*56
1545804454.35,2449,1.13,73066.3,-12.87,-13.47,-13.47,0,*57
1545804455.58,2450,1.13,73076.5,-12.87,-13.47,-13.47,0,*5F
1545804456.8,2451,1.13,73070.0,-12.87,-13.47,-13.47,0,*5E
1545804458.03,2452,1.13,73072.5,-12.87,-13.55,-13.47,0,*5E
1545804459.27,2453,1.13,73050.5,-12.87,-13.47,-13.55,0,*5F
1545804460.47,2454,1.13,73064.5,-12.89,-13.55,-13.47,0,*56
1545804461.7,2455,1.13,73070.5,-12.89,-13.47,-13.61,0,*50
1545804462.91,2456,1.13,73062.0,-12.89,-13.55,-13.55,0,*57
1545804464.14,2457,1.13,73056.8,-12.89,-13.61,-13.47,0,*52
1545804465.34,2458,1.13,73044.0,-12.89,-13.47,-13.47,0,*59
1545804466.54,2459,1.13,73046.3,-12.89,-13.47,-13.47,0,*58
1545804467.77,2460,1.13,73062.5,-12.87,-13.55,-13.47,0,*5F
1545804468.98,2461,1.13,73060.5,-12.89,-13.55,-13.55,0,*53
1545804470.18,2462,1.13,73060.0,-12.89,-13.55,-13.47,0,*53
1545804471.39,2463,1.13,73062.8,-12.89,-13.47,-13.55,0,*52
1545804472.62,2464,1.13,73048.0,-12.89,-13.61,-13.55,0,*51
1545804473.86,2465,1.13,73052.8,-12.89,-13.47,-13.61,0,*53
1545804475.13,2466,1.13,73064.0,-12.91,-13.51,-13.61,0,*5E
1545804476.33,2467,1.13,73064.0,-12.89,-13.43,-13.47,0,*51
1545804477.53,2468,1.13,73068.3,-12.89,-13.47,-13.55,0,*59
1545804478.74,2469,1.13,73060.8,-12.89,-13.55,-13.47,0,*58
1545804479.94,2470,1.13,73064.5,-12.89,-13.55,-13.47,0,*50
1545804481.17,2471,1.13,73064.0,-12.87,-13.47,-13.43,0,*58
1545804482.38,2472,1.13,73058.8,-12.89,-13.55,-13.43,0,*56
1545804483.61,2473,1.13,73062.0,-12.89,-13.55,-13.61,0,*57
1545804484.82,2474,1.13,73070.3,-12.89,-13.55,-13.47,0,*54
1545804486.02,2475,1.13,73070.3,-12.89,-13.55,-13.43,0,*51
1545804487.22,2476,1.13,73072.3,-12.89,-13.47,-13.47,0,*55
1545804488.42,2477,1.13,73070.5,-12.89,-13.55,-13.47,0,*57
1545804489.65,2478,1.13,73078.8,-12.89,-13.61,-13.47,0,*5F
1545804490.85,2479,1.13,73072.5,-12.89,-13.47,-13.47,0,*5A
1545804492.05,2480,1.13,73074.5,-12.89,-13.47,-13.47,0,*5C
1545804493.25,2481,1.13,73068.3,-12.89,-13.55,-13.47,0,*5E
1545804494.49,2482,1.13,73078.3,-12.89,-13.61,-13.55,0,*59
1545804495.72,2483,1.13,73064.0,-12.89,-13.55,-13.61,0,*58
1545804496.96,2484,1.13,73070.0,-12.87,-13.55,-13.55,0,*56
1545804498.17,2485,1.13,73072.5,-12.89,-13.55,-13.55,0,*59
1545804499.41,2486,1.13,73076.3,-12.89,-13.55,-13.61,0,*5D
1545804500.67,2487,1.13,73076.5,-12.91,-13.65,-13.61,0,*56
1545804501.88,2488,1.13,73084.3,-12.89,-13.55,-13.43,0,*53
1545804503.08,2489,1.13,73084.8,-12.89,-13.55,-13.47,0,*56
1545804504.31,2490,1.13,73094.3,-12.89,-13.61,-13.47,0,*59